This is the latest recevied weather packets stored in our database for station/object XE2KK-10. If no packets are shown the sender has not sent any weather packets the latest 10 day(s).
| Time | Temp. | Humidity | Pressure | Rain* | Wind** | Luminosity | Snow |
|---|---|---|---|---|---|---|---|
| 1777505353 | 36.11° C | 34% | 1007.1 hPa | 0 mm | - | 150 W/m² | - |
| 1777505053 | 36.11° C | 36% | 1006.8 hPa | 0 mm | - | 183 W/m² | - |
| 1777502353 | 37.22° C | 33% | 1006.5 hPa | 0 mm | - | 342 W/m² | - |
| 1777502053 | 37.22° C | 32% | 1006.9 hPa | 0 mm | - | 381 W/m² | - |
| 1777501753 | 37.22° C | 32% | 1006.9 hPa | 0 mm | - | 465 W/m² | - |
| 1777501453 | 36.67° C | 33% | 1006.9 hPa | 0 mm | - | 332 W/m² | - |
| 1777501152 | 37.78° C | 32% | 1006.8 hPa | 0 mm | - | 338 W/m² | - |
| 1777500852 | 37.78° C | 33% | 1007.1 hPa | 0 mm | - | 321 W/m² | - |
| 1777500553 | 37.78° C | 32% | 1006.9 hPa | 0 mm | - | 439 W/m² | - |
| 1777500253 | 37.22° C | 34% | 1007.1 hPa | 0 mm | - | 496 W/m² | - |
| 1777499953 | 37.78° C | 35% | 1007.5 hPa | 0 mm | - | 480 W/m² | - |
| 1777498453 | 37.78° C | 36% | 1007.4 hPa | 0 mm | - | 576 W/m² | - |
| 1777498153 | 37.78° C | 38% | 1007.8 hPa | 0 mm | - | 586 W/m² | - |
| 1777497853 | 37.22° C | 39% | 1007.6 hPa | 0 mm | - | 560 W/m² | - |
| 1777497252 | 37.22° C | 35% | 1007.8 hPa | 0 mm | - | 609 W/m² | - |
| 1777496953 | 37.22° C | 38% | 1008 hPa | 0 mm | - | 622 W/m² | - |
| 1777496653 | 37.22° C | 39% | 1008.2 hPa | 0 mm | - | 632 W/m² | - |
| 1777496053 | 36.67° C | 43% | 1008.2 hPa | 0 mm | - | 644 W/m² | - |
| 1777495153 | 36.67° C | 43% | 1008.4 hPa | 0 mm | - | 723 W/m² | - |
| 1777494853 | 36.67° C | 42% | 1008.9 hPa | 0 mm | - | 734 W/m² | - |
| 1777494553 | 36.67° C | 42% | 1008.7 hPa | 0 mm | - | 736 W/m² | - |
| 1777494252 | 36.11° C | 43% | 1009 hPa | 0 mm | - | 738 W/m² | - |
| 1777493952 | 36.67° C | 42% | 1009 hPa | 0 mm | - | 740 W/m² | - |
| 1777493652 | 36.67° C | 44% | 1009.5 hPa | 0 mm | - | 742 W/m² | - |
| 1777493353 | 36.11° C | 46% | 1009.5 hPa | 0 mm | - | 776 W/m² | - |
* Rain latest hour (hover to see other rain measurements)
** Current wind speed in m/s (hover to see current wind gust speed)